Miscellaneous Local Product
Issued by NWS North Platte, NE

Home | Current Version | Previous Version | Text Only | Print | Product List | Glossary On
Versions: 1 2 3 4 5 6 7 8 9 10 11 12 13 14 15 16 17 18 19 20 21 22 23 24 25 26 27 28 29 30 31 32 33 34 35 36 37 38 39 40 41 42 43 44 45 46 47 48 49 50
000
AXUS43 KLBF 202310
MISLBF


WESTERN AND NORTH CENTRAL NEBRASKA HOURLY WEATHER ROUNDUP
NATIONAL WEATHER SERVICE NORTH PLATTE NE
600 PM CDT SUN APR 20 2014

***STATIONS NOT REPORTING VARIABLES SUCH AS SKY/WEATHER OR
PRESSURE ARE PROVIDED BY THE NEBRASKA DEPARTMENT OF
ROADS...RAWS...AND APRS NETWORKS...AND ARE NOT UNDER
NATIONAL WEATHER SERVICE QUALITY CONTROL***

...OBSERVATIONS IN AND NEAR THE EASTERN PANHANDLE OF NEBRASKA...

CITY           SKY/WX    TMP DP  RH WIND       PRES   REMARKS
PINE RIDGE     MOSUNNY   76  32  20 N9        29.91S
CHADRON        PTSUNNY   75  34  22 NW12      29.92R
ALLIANCE       MOSUNNY   75  28  17 NW10      29.92S
SIDNEY         MOSUNNY   78  30  17 NW15      29.95S
WHITECLAY        N/A     75  33  21 NW8         N/A
CRESCENT LAKE    N/A     78  30  17 W9          N/A
LISCO            N/A     81  21  11 W14         N/A
BIG SPRINGS      N/A     77  44  30 S3          N/A
LEWELLEN         N/A     85  29  13 SW5         N/A
$$

...OBSERVATIONS IN SOUTHWEST NEBRASKA AND FAR NORTHEAST COLORADO...

CITY           SKY/WX    TMP DP  RH WIND       PRES   REMARKS
WRAY           FAIR      74  44  34 CALM      29.94F
HOLYOKE        FAIR      77  43  29 SE5       29.93F
IMPERIAL       PTSUNNY   77  45  32 N7        29.91F
OGALLALA       SUNNY     76  42  30 S7        29.92S
NORTH PLATTE   PTSUNNY   75  49  39 SE6       29.90F
MCCOOK         CLOUDY    72  53  51 S15       29.91R
LEXINGTON      PTSUNNY   76  50  39 SW10      29.90F
PAXTON           N/A     74  51  44 SW5         N/A
SUTHERLAND       N/A     79  48  33 CALM        N/A
MEDICINE CREEK   N/A     78  56  46 CALM        N/A
GOTHENBURG       N/A     75  53  45 SW3         N/A
CALLAWAY         N/A     75  52  45 S13         N/A
$$

...OBSERVATIONS IN NORTH CENTRAL NEBRASKA...

CITY           SKY/WX    TMP DP  RH WIND       PRES   REMARKS
VALENTINE      MOSUNNY   81  39  22 S10       29.85F
THEDFORD       SUNNY     79  38  22 SW6       29.89F
AINSWORTH      PTSUNNY   79  39  24 S9        29.87F
O`NEILL        MOSUNNY   79  44  29 SW7       29.88F
ORD            PTSUNNY   77  49  37 S15       29.87F
BROKEN BOW     MOSUNNY   75  49  39 SW12      29.89F
BROWNLEE         N/A     82  39  21 S6          N/A
SPRINGVIEW       N/A     81  44  26 SW3         N/A
DUNNING          N/A     78  48  34 SW8         N/A
BREWSTER         N/A     80  49  34 S13         N/A
ROSE             N/A     82  49  31 S7          N/A
NEWPORT          N/A     80  44  28 S8          N/A
COMSTOCK         N/A     80  55  41 S9          N/A
CHAMBERS         N/A     79  49  34 S6          N/A
EWING            N/A     78  53  41 SW6         N/A
$$

...SOME WEATHER OBSERVATIONS FROM AROUND THE REGION...

CITY           SKY/WX    TMP DP  RH WIND       PRES   REMARKS
DENVER         PTSUNNY   69  35  28 NE6       30.03R
LARAMIE        PTSUNNY   61  24  24 W15       30.12S
CHEYENNE       CLOUDY    66  26  22 NW14      30.06S
SCOTTSBLUFF    MOSUNNY   79  30  16 NW15G22   29.94S
RAPID CITY     PTSUNNY   67  31  26 N24G36    29.98R
PIERRE         MOSUNNY   78  45  30 SE3       29.82S
WINNER         FAIR      83  40  21 S13G22    29.84F
SIOUX FALLS    MOSUNNY   78  48  34 S7        29.86F
OMAHA          CLOUDY    80  50  34 SW20G31   29.89S
GRAND ISLAND   CLOUDY    78  51  38 S7        29.90F
KANSAS CITY    CLOUDY    76  53  44 SW17G24   29.99F
WICHITA        PTSUNNY   73  56  54 S15       29.99F
HAYS           PTSUNNY   73  54  49 SE20      29.90S
LIBERAL        PTSUNNY   72  48  43 S15       29.91F
GOODLAND       PTSUNNY   75  45  34 N12       29.93S
$$



USA.gov is the U.S. government's official web portal to all federal, state and local government web resources and services.